Location: San Vito
(41.8833°N, 12.9833°E)
Time: 02:27:47
(UTC+00:00)

Cosmos 1802 Rocket - Pass Details

Date: 17 November 2019
Orbit: 953 x 1012 km, 82.9° (Epoch: 14 December)

Event Time Altitude Azimuth Distance (km) Brightness Sun altitude
Rises 04:54:17 0° 203° (SSW) 3,731 7.0 -12.3°
Reaches altitude 10° 04:56:54 10° 209° (SSW) 2,786 6.3 -11.8°
Maximum altitude 05:03:05 48° 283° (WNW) 1,293 4.3 -10.7°
Drops below altitude 10° 05:09:17 10° 357° (N) 2,791 6.2 -9.6°
Sets 05:11:56 0° 3° (N) 3,739 6.9 -9.1°
